FW1302 Weather Reports


time (UTC)temp
C
wind
direction
speed
KPH
gust
KPH
rain 1hr
cm
rain 24hr
cm
rain mn
cm
humidity
%
barometer
mb
20260505001429 21 226 27.4 38.6 0.00 0.00 0.00 55 1019.7
20260505000429 21 222 25.7 33.8 0.00 0.00 0.00 55 1019.6
20260504234528 21 228 24.1 33.8 0.00 0.00 0.00 55 1019.7
20260504233530 21 224 25.7 37.0 0.00 0.00 0.00 54 1019.8
20260504232629 21 222 24.1 38.6 0.00 0.00 0.00 54 1019.7
20260504231630 21 223 30.6 43.5 0.00 0.00 0.00 55 1019.5
20260504230629 21 224 27.4 40.2 0.00 0.00 0.00 55 1019.6
20260504225628 21 222 30.6 45.1 0.00 0.00 0.00 55 1019.6
20260504224728 21 219 27.4 40.2 0.00 0.00 0.00 56 1019.7
20260504223730 21 225 29.0 38.6 0.00 0.00 0.00 56 1020.0
20260504222730 21 227 27.4 37.0 0.00 0.00 0.00 58 1020.0
20260504220828 20 219 20.9 32.2 0.00 0.00 0.00 60 1020.3
20260504215828 20 215 25.7 32.2 0.00 0.00 0.00 60 1020.4
20260504215730 20 225 30.6 37.0 0.00 0.00 0.00 60 1020.5
20260504214729 20 225 27.4 38.6 0.00 0.00 0.00 60 1020.5
20260504214628 20 226 27.4 41.8 0.00 0.00 0.00 61 1020.5
20260504212630 19 222 27.4 38.6 0.00 0.00 0.00 63 1020.8
20260504211630 19 225 30.6 38.6 0.00 0.00 0.00 64 1020.9
20260504210729 19 220 30.6 43.5 0.00 0.00 0.00 64 1020.8
20260504204830 19 225 32.2 38.6 0.00 0.00 0.00 63 1021.0
20260504201030 18 209 20.9 29.0 0.00 0.00 0.00 65 1021.4
20260504195030 18 219 24.1 29.0 0.00 0.00 0.00 66 1021.6
20260504194128 18 225 27.4 38.6 0.00 0.00 0.00 66 1021.7
20260504193130 17 226 25.7 37.0 0.00 0.00 0.00 67 1021.7
20260504192229 17 227 20.9 35.4 0.00 0.00 0.00 66 1021.9
20260504191231 17 218 27.4 38.6 0.00 0.00 0.00 68 1021.9
20260504190228 17 226 33.8 45.1 0.00 0.00 0.00 68 1022.1
20260504185230 17 226 27.4 43.5 0.00 0.00 0.00 68 1021.9
20260504184129 17 225 27.4 33.8 0.00 0.00 0.00 68 1022.2
20260504183130 17 223 30.6 41.8 0.00 0.00 0.00 68 1022.2
20260504181230 17 225 19.3 29.0 0.00 0.00 0.00 68 1022.2
20260504175232 16 222 20.9 33.8 0.00 0.00 0.00 68 1022.4
20260504174328 16 222 27.4 38.6 0.00 0.00 0.00 68 1022.5
20260504172430 16 221 19.3 25.7 0.00 0.00 0.00 70 1022.6
20260504170428 16 207 20.9 29.0 0.00 0.00 0.00 70 1022.6
20260504150531 16 221 17.7 25.7 0.00 0.00 0.00 69 1022.4
20260504081730 14 22 0.0 1.6 0.00 0.00 0.00 74 1019.2
20260504080728 15 22 0.0 0.0 0.00 0.00 0.00 72 1019.3
20260504045910 18 22 0.0 0.0 0.00 0.00 0.00 60 1018.3
20260504045008 19 22 0.0 0.0 0.00 0.00 0.00 57 1018.1
20260504044008 20 22 0.0 0.0 0.00 0.00 0.00 52 1018.1
20260504043009 21 22 0.0 0.0 0.00 0.00 0.00 49 1017.9
20260504042009 21 360 4.8 8.0 0.00 0.00 0.00 49 1017.8
20260504041107 20 360 0.0 6.4 0.00 0.00 0.00 52 1017.7
20260504035109 21 315 0.0 0.0 0.00 0.00 0.00 49 1017.4
20260504034109 21 180 0.0 0.0 0.00 0.00 0.00 53 1017.3
20260504032211 21 180 0.0 0.0 0.00 0.00 0.00 51 1016.9
20260504031208 22 180 0.0 0.0 0.00 0.00 0.00 49 1016.9
20260504030207 23 180 0.0 0.0 0.00 0.00 0.00 45 1016.7
20260504030109 23 180 0.0 0.0 0.00 0.00 0.00 45 1016.7
20260504025108 23 180 0.0 0.0 0.00 0.00 0.00 43 1016.7
20260504025010 23 180 0.0 0.0 0.00 0.00 0.00 43 1016.6
20260504024108 24 180 0.0 0.0 0.00 0.00 0.00 40 1016.5
20260504023109 26 225 0.0 0.0 0.00 0.00 0.00 37 1016.5
20260504022207 26 225 1.6 1.6 0.00 0.00 0.00 37 1016.3
20260504021207 25 225 1.6 3.2 0.00 0.00 0.00 38 1016.4
20260504020210 25 247 3.2 4.8 0.00 0.00 0.00 38 1016.3
20260504015309 26 45 0.0 0.0 0.00 0.00 0.00 35 1016.3
20260504014307 28 45 0.0 0.0 0.00 0.00 0.00 32 1016.4
20260504013309 27 38 3.2 8.0 0.00 0.00 0.00 34 1016.4
20260504010307 28 45 11.3 16.1 0.00 0.00 0.00 28 1016.7
20260504005309 28 45 9.7 12.9 0.00 0.00 0.00 29 1016.8
20260504004407 27 45 8.0 9.7 0.00 0.00 0.00 31 1016.9
20260504003408 27 45 9.7 12.9 0.00 0.00 0.00 29 1017.1
20260504002407 28 45 9.7 14.5 0.00 0.00 0.00 28 1017.1